This demonstration page uses our WeatherBlox Daily Observations layout. Learn more.

Left ArrowRight Arrow

Hourly Observations for August 21, 2022

Temp ( °F °C ) Dew Point ( °F °C ) Humidity (%) Winds ( mph kmh ) Pressure ( in mb ) Visibility ( mi km ) Precip ( " mm )
12:52 am 00:52 Clear 64 17.8 62 16.7 93 93 N 6 9 30.05 1018 10 16 0.00 0.00
1:52 am 01:52 Clear 63 17.2 62 16.7 97 97 N 6 9 30.05 1018 10 16 0.00 0.00
2:52 am 02:52 Clear 63 17.2 62 16.7 97 97 N 7 11 30.06 1018 10 16 0.00 0.00
3:52 am 03:52 Clear 62 16.7 61 16.1 96 96 N 8 13 30.06 1018 9 14 0.00 0.00
4:52 am 04:52 Clear 61 16.1 61 16.1 100 100 N 8 13 30.06 1018 7 11 0.00 0.00
5:52 am 05:52 Mostly Clear with Mist and Fog 59 15 59 15 100 100 NNW 6 9 30.07 1018 6 10 0.00 0.00
6:38 am 06:38 Partly Cloudy with Fog 60 15.6 60 15.6 100 100 N 9 15 30.09 1019 1 1 0.00 0.00
6:52 am 06:52 Mostly Cloudy with Fog 59 15 59 15 100 100 N 8 13 30.08 1019 0 0 0.00 0.00
7:06 am 07:06 Partly Cloudy with Fog 59 15 59 15 100 100 N 7 11 30.09 1019 0 0 0.00 0.00
7:19 am 07:19 Partly Cloudy with Fog 59 15 59 15 100 100 N 6 9 30.10 1019 0 0 0.00 0.00
7:28 am 07:28 Partly Cloudy with Fog 59 15 59 15 100 100 N 5 7 30.10 1019 0 0 0.00 0.00
7:52 am 07:52 Partly Cloudy with Fog 60 15.6 60 15.6 100 100 N 7 11 30.10 1019 0 0 0.00 0.00
8:52 am 08:52 Partly Cloudy with Fog 62 16.7 62 16.7 100 100 NNW 3 6 30.12 1020 1 1 0.00 0.00
9:26 am 09:26 Mostly Cloudy with Mist and Fog 63 17.2 63 17.2 100 100 N 5 7 30.11 1020 2 3 0.00 0.00
9:30 am 09:30 Partly Cloudy with Mist and Fog 63 17.2 63 17.2 100 100 N 5 7 30.11 1020 3 5 0.00 0.00
9:52 am 09:52 Mostly Sunny 66 18.9 64 17.8 93 93 N 8 13 30.12 1020 10 16 0.00 0.00
10:52 am 10:52 Mostly Sunny 73 22.8 64 17.8 73 73 N 8 13 30.12 1020 10 16 0.00 0.00
11:52 am 11:52 Mostly Sunny 76 24.4 64 17.8 67 67 NNE 7 11 30.11 1020 10 16 0.00 0.00
12:52 pm 12:52 Partly Cloudy 79 26.1 64 17.8 60 60 VRB 7 11 30.11 1020 10 16 0.00 0.00
1:52 pm 13:52 Partly Cloudy 81 27.2 63 17.2 54 54 E 5 7 30.09 1019 10 16 0.00 0.00
2:52 pm 14:52 Partly Cloudy 83 28.3 62 16.7 49 49 VRB 7 11 30.07 1018 10 16 0.00 0.00
3:52 pm 15:52 Mostly Cloudy 84 28.9 63 17.2 49 49 VRB 2 4 30.06 1018 10 16 0.00 0.00
4:52 pm 16:52 Partly Cloudy 83 28.3 63 17.2 51 51 ENE 5 7 30.05 1018 10 16 0.00 0.00
5:52 pm 17:52 Mostly Sunny 83 28.3 62 16.7 49 49 ENE 5 7 30.05 1018 10 16 0.00 0.00
6:52 pm 18:52 Mostly Sunny 81 27.2 62 16.7 53 53 ENE 7 11 30.04 1017 10 16 0.00 0.00
7:52 pm 19:52 Mostly Sunny 78 25.6 63 17.2 60 60 ENE 5 7 30.05 1018 10 16 0.00 0.00
8:52 pm 20:52 Mostly Clear 75 23.9 63 17.2 66 66 E 5 7 30.06 1018 10 16 0.00 0.00
9:52 pm 21:52 Clear 69 20.6 64 17.8 84 84 NNW 3 6 30.08 1019 10 16 0.00 0.00
10:52 pm 22:52 Clear 69 20.6 63 17.2 81 81 VRB 3 6 30.08 1019 10 16 0.00 0.00
11:52 pm 23:52 Clear 70 21.1 63 17.2 78 78 ENE 5 7 30.09 1019 10 16 0.00 0.00

Powered by AerisWeather